Weather History for Ashtabula, OH

Change the Weather History Date:

Tuesday, May 27, 2014

  Actual Average (KYNG) Record (KYNG)
Temperature  
Mean Temperature 72 °F 61 °F  
Max Temperature 80 °F 72 °F 92 °F (1939)
Min Temperature 64 °F 50 °F 30 °F (1969)
Degree Days  
Heating Degree Days 0 6  
Month to date heating degree days 232  
Since 1 July heating degree days 6259  
Cooling Degree Days 6 2  
Month to date cooling degree days 22  
Year to date cooling degree days 31  
Growing Degree Days 22 (Base 50)    
Moisture  
Dew Point 61 °F    
Average Humidity 72    
Maximum Humidity 90    
Minimum Humidity 56    
Precipitation  
Precipitation 0.00 in 0.13 in 2.08 in (2011)
Month to date precipitation 3.27  
Year to date precipitation 14.27  
Snow  
Snow 0.00 in 0.00 in - ()
Month to date snowfall 0.0  
Since 1 July snowfall 62.7  
Snow Depth -    
Sea Level Pressure  
Sea Level Pressure 29.92 in    
Wind  
Wind Speed 4 mph (West)    
Max Wind Speed 16 mph    
Max Gust Speed 23 mph    
Visibility 10 miles    
Events Rain    
T = Trace of Precipitation, MM = Missing Value Source: NWS Daily Summary

Daily Weather History Graph

Daily Weather History Graph

Search for Another Location

Airport:

Trip Planner

Search our weather history database for the weather conditions in past years. The results will help you decide how hot, cold, wet, or windy it might be!

Date:

Astronomy

May. 27, 2014 Rise Set
Actual Time 5:53 AM EDT 8:47 PM EDT
Civil Twilight 5:20 AM EDT 9:20 PM EDT
Nautical Twilight 4:38 AM EDT 10:02 PM EDT
Astronomical Twilight 3:50 AM EDT 10:50 PM EDT
Moon 5:16 AM EDT (5/27) 7:46 PM EDT (5/27)
Length of Visible Light 16h 00m
Length of Day
14h 54m
Waning Crescent, 1% of the Moon is Illuminated
May 27
Waning Crescent
May 28
New
Jun 5
First Quarter
Jun 13
Full
Jun 19
Last Quarter

Hourly Weather History & Observations

Time (EDT) Temp. Dew Point Humidity Pressure Visibility Wind Dir Wind Speed Gust Speed Precip Events Conditions
12:53 AM 66.0 °F 55.0 °F 68% 29.96 in 10.0 mi Calm Calm - N/A   Partly Cloudy
1:53 AM 68.0 °F 55.9 °F 65% 29.95 in 10.0 mi Calm Calm - N/A   Partly Cloudy
2:53 AM 68.0 °F 57.0 °F 68% 29.94 in 10.0 mi SW 4.6 mph - N/A   Scattered Clouds
3:53 AM 66.9 °F 57.0 °F 70% 29.93 in 10.0 mi Calm Calm - N/A   Partly Cloudy
4:53 AM 66.9 °F 57.9 °F 73% 29.93 in 10.0 mi SSW 6.9 mph - N/A   Scattered Clouds
5:53 AM 66.0 °F 61.0 °F 84% 29.94 in 10.0 mi Calm Calm - 0.00 in Rain Light Rain
6:53 AM 64.9 °F 62.1 °F 90% 29.94 in 6.0 mi Calm Calm - 0.00 in   Clear
7:53 AM 68.0 °F 63.0 °F 84% 29.94 in 8.0 mi SE 3.5 mph - N/A   Clear
8:53 AM 72.0 °F 63.0 °F 73% 29.95 in 10.0 mi West 10.4 mph - N/A   Clear
9:53 AM 71.1 °F 64.0 °F 78% 29.95 in 10.0 mi West 6.9 mph - N/A   Overcast
10:53 AM 71.1 °F 63.0 °F 75% 29.96 in 10.0 mi West 6.9 mph - N/A   Overcast
11:53 AM 72.0 °F 64.0 °F 76% 29.96 in 10.0 mi WSW 5.8 mph - N/A   Overcast
12:53 PM 73.9 °F 63.0 °F 68% 29.95 in 10.0 mi WSW 5.8 mph - N/A   Overcast
1:53 PM 75.9 °F 62.1 °F 62% 29.93 in 10.0 mi West 9.2 mph - N/A   Overcast
2:53 PM 77.0 °F 61.0 °F 58% 29.90 in 10.0 mi West 16.1 mph - N/A   Mostly Cloudy
3:53 PM 79.0 °F 62.1 °F 56% 29.88 in 10.0 mi WNW 10.4 mph 21.9 mph N/A   Scattered Clouds
5:53 PM 79.0 °F 62.1 °F 56% 29.87 in 10.0 mi WNW 12.7 mph 23.0 mph N/A   Partly Cloudy
6:53 PM 77.0 °F 63.0 °F 62% 29.87 in 10.0 mi West 8.1 mph - N/A   Scattered Clouds
7:53 PM 75.0 °F 62.1 °F 64% 29.88 in 10.0 mi WNW 8.1 mph 21.9 mph N/A   Mostly Cloudy
8:53 PM 70.0 °F 61.0 °F 73% 29.88 in 10.0 mi WNW 4.6 mph - 0.00 in   Mostly Cloudy
9:53 PM 68.0 °F 62.1 °F 81% 29.89 in 10.0 mi WSW 4.6 mph - N/A   Clear
10:53 PM 66.9 °F 62.1 °F 84% 29.90 in 10.0 mi Calm Calm - N/A   Scattered Clouds
11:53 PM 66.9 °F 63.0 °F 87% 29.91 in 10.0 mi Calm Calm - 0.00 in   Overcast